Weather Roundup
Issued by NWS

Home | Current Version | Previous Version | Graphics & Text | Print | Product List | Glossary Off
Versions: 1 2 3 4 5 6 7 8 9 10 11 12 13 14 15 16 17 18 19 20 21 22 23 24 25 26 27 28 29 30 31 32 33 34 35 36 37 38 39 40 41 42 43 44 45 46 47 48 49 50

000
NZUS93 KARX 271659
HRRWXR

CURRENT HOURLY OBSERVATIONS ACROSS
MUCH OF THE UPPER MISSISSIPPI VALLEY
NATIONAL WEATHER SERVICE LA CROSSE WI
1200 PM CDT FRI MAR 27 2015


...SOUTHEAST MINNESOTA...


CITY           SKY/WX    TMP DP  RH WIND       PRES   REMARKS
ROCHESTER      SUNNY     24   9  52 CALM      30.24F
ROCHESTER/MAYO FAIR      26   9  48 NW3       30.25F
WINONA         SUNNY     30   9  40 CALM      30.27F
AUSTIN         SUNNY     25   9  50 SE3       30.24F
ALBERT LEA     SUNNY     27   9  46 N5        30.24F WCI  21
DODGE CENTER   SUNNY     25  10  54 SE3       30.23F
PRESTON        SUNNY     24   7  49 NW3       30.24F
OWATONNA       SUNNY     25   7  46 CALM      30.24F
FARIBAULT      SUNNY     28   5  37 CALM      30.26F
$$

...ELSEWHERE IN MINNESOTA...


CITY           SKY/WX    TMP DP  RH WIND       PRES   REMARKS
MINNEAPOLIS    MOSUNNY   29   1  30 CALM      30.26F
INTNL FALLS    SUNNY     25   6  44 SE6       30.20F WCI  18
DULUTH         MOSUNNY   24   4  42 CALM      30.20F
RED WING       SUNNY     28   0  29 E6        30.26F WCI  22
REDWOOD FALLS  SUNNY     29  10  45 S3        30.25F
MANKATO        SUNNY     27   3  36 CALM      30.27F
WORTHINGTON    MOSUNNY   28   7  40 CALM      30.22F
FAIRMONT       SUNNY     30   9  40 CALM      30.24F
$$

...SOUTHWEST WISCONSIN...


CITY           SKY/WX    TMP DP  RH WIND       PRES   REMARKS
LA CROSSE      SUNNY     30  10  43 W3        30.26F
PRAIRIE DU CHI SUNNY     28   6  39 NW9       30.26F WCI  19
BOSCOBEL       SUNNY     29   8  41 N9        30.24F WCI  20
LONE ROCK      NOT AVBL
PLATTEVILLE    SUNNY     27  12  54 NW12      30.22S WCI  16
FORT MC COY    SUNNY     28   5  37 NE7       30.25F WCI  21
VIROQUA        FAIR      26   9  49 N5        30.22S WCI  20
WIS DELLS      NOT AVBL
$$

...ELSEWHERE IN WISCONSIN...


CITY           SKY/WX    TMP DP  RH WIND       PRES   REMARKS
MILWAUKEE      MOSUNNY   26   9  48 NE15G22   30.18F WCI  14
MADISON        SUNNY     28   5  37 N14G22    30.20F WCI  17
GREEN BAY      MOSUNNY   25   7  46 N10       30.21F WCI  15
EAU CLAIRE     NOT AVBL
BLACK RVR FLS  FAIR      29   5  37 NW5       30.24F WCI  23
MEDFORD        SUNNY     22   7  53 CALM      30.19F
WAUSAU         SUNNY     23   7  50 N7        30.19F WCI  15
WIS RAPIDS     MOSUNNY   24   7  48 NW13      30.23F WCI  12
MARSHFIELD     SUNNY     24   9  52 NW5       30.20F WCI  18
RICE LAKE      SUNNY     27   6  41 N3        30.25F
$$

...NORTHEAST IOWA...


CITY           SKY/WX    TMP DP  RH WIND       PRES   REMARKS
DECORAH        SUNNY     25   7  46 VRB6G15   30.24S WCI  18
MASON CITY     SUNNY     31  10  41 N8        30.25F WCI  23
CHARLES CITY   SUNNY     28  10  47 NE6G12    30.26F WCI  22
OELWEIN        SUNNY     28   9  43 N10       30.26R WCI  19
$$

...ELSEWHERE IN IOWA...


CITY           SKY/WX    TMP DP  RH WIND       PRES   REMARKS
DES MOINES     MOSUNNY   36   8  31 VRB7      30.27S WCI  30
IOWA CITY      SUNNY     33   6  32 N13       30.26F WCI  24
FORT DODGE     SUNNY     32  10  40 NE7       30.26F WCI  26
$$

...NORTHERN ILLINOIS...


CITY           SKY/WX    TMP DP  RH WIND       PRES   REMARKS
CHICAGO-OHARE  MOSUNNY   27   9  46 N15       30.16F WCI  15
CHICAGO-MIDWAY PTSUNNY   28  12  51 N14G25    30.17S WCI  17
MOLINE         SUNNY     32   8  36 NE14      30.23S WCI  22
ROCKFORD       MOSUNNY   28   6  38 N17       30.20F WCI  16
PEORIA         SUNNY     33  11  39 N13G23    30.19F WCI  24
$$

NOTE: "FAIR" INDICATES FEW OR NO CLOUDS BELOW 12,000 FEET WITH NO
SIGNIFICANT WEATHER AND/OR OBSTRUCTIONS TO VISIBILITY. WIND
SPEEDS ARE IN MILES-PER-HOUR.



USA.gov is the U.S. government's official web portal to all federal, state and local government web resources and services.